# PBO H2O Data Portal - http://xenon.colorado.edu/portal 
# created 24-Dec-2017 
# p537    35.316795   240.064661   581.8  / station Lat. Lon. Elev.(m)
# PBO H2O Product Release Version   2.5 
# Meterological Data 
# The NLDAS and insitu met data have been reformatted by CU 
# Quality of NLDAS data is the responsibility of NASA GSFC 
# Met data quality is the responsibility of UNAVCO (http://pbo.unavco.org) 
# UNITS: Precipitation (mm) Temperature (C) 
# NLDAS data are in columns 5-8; Data from Vaisala WXT520 Sensor are in columns 9-12 
# Year, Month, Day, Dayofyear, Tavg, Tmin, Tmax, Precip, Tavg, Tmin, Tmax, Precip 
2006,01,01,001,  8.7,  6.9, 11.9,  7.4,,,,, 
2006,01,02,002, 10.2,  7.7, 11.5, 42.2,,,,, 
2006,01,03,003,  7.8,  4.2, 13.1,  3.2,,,,, 
2006,01,04,004, 10.8,  7.5, 16.3,  1.4,,,,, 
2006,01,05,005, 13.6, 10.3, 21.1,  0.0,,,,, 
2006,01,06,006, 14.7, 10.6, 21.6,  0.0,,,,, 
2006,01,07,007, 12.3,  7.5, 20.6,  0.0,,,,, 
2006,01,08,008,  9.1,  5.3, 13.7,  0.0,,,,, 
2006,01,09,009,  8.5,  4.6, 14.6,  0.0,,,,, 
2006,01,10,010,  9.0,  4.4, 15.7,  0.0,,,,, 
2006,01,11,011,  9.8,  5.7, 16.1,  0.0,,,,, 
2006,01,12,012, 11.0,  7.3, 15.9,  0.0,,,,, 
2006,01,13,013, 11.6,  7.6, 18.1,  0.0,,,,, 
2006,01,14,014,  9.7,  5.9, 16.5,  2.8,,,,, 
2006,01,15,015,  6.3,  2.8,  9.9,  0.4,,,,, 
2006,01,16,016,  4.8,  0.7, 10.2,  0.0,,,,, 
2006,01,17,017,  7.0,  3.1, 14.2,  0.0,,,,, 
2006,01,18,018,  9.3,  6.3, 14.3,  0.7,,,,, 
2006,01,19,019,  7.0,  2.2, 12.0,  0.0,,,,, 
2006,01,20,020,  5.7,  1.8, 11.0,  0.0,,,,, 
2006,01,21,021,  6.2,  2.1, 11.8,  0.0,,,,, 
2006,01,22,022,  6.7,  2.1, 11.8,  0.0,,,,, 
2006,01,23,023,  7.1,  1.6, 13.8,  0.0,,,,, 
2006,01,24,024,  9.3,  4.4, 17.5,  0.0,,,,, 
2006,01,25,025, 10.5,  5.1, 17.2,  0.0,,,,, 
2006,01,26,026,  7.7,  3.7, 14.7,  0.0,,,,, 
2006,01,27,027,  7.5,  3.1, 11.4,  0.0,,,,, 
2006,01,28,028,  7.4,  4.1, 13.1,  0.0,,,,, 
2006,01,29,029,  8.4,  4.6, 13.5,  0.0,,,,, 
2006,01,30,030,  9.5,  5.2, 15.3,  0.0,,,,, 
2006,01,31,031,  9.4,  4.5, 15.1,  0.0,,,,, 
2006,02,01,032,  9.0,  4.9, 15.2,  0.0,,,,, 
2006,02,02,033, 11.7,  8.1, 17.5,  0.0,,,,, 
2006,02,03,034, 13.0,  9.1, 17.8,  0.0,,,,, 
2006,02,04,035, 13.2,  8.6, 18.6,  0.0,,,,, 
2006,02,05,036, 12.7,  8.2, 18.0,  0.0,,,,, 
2006,02,06,037, 13.6,  8.7, 21.3,  0.0,,,,, 
2006,02,07,038, 14.2,  8.5, 22.0,  0.0,,,,, 
2006,02,08,039, 14.4,  8.3, 22.4,  0.0,,,,, 
2006,02,09,040, 15.0,  8.6, 23.5,  0.0,,,,, 
2006,02,10,041, 16.0,  9.7, 23.4,  0.0,,,,, 
2006,02,11,042, 14.0,  8.0, 21.2,  0.0,,,,, 
2006,02,12,043, 14.8,  9.6, 22.4,  0.0,,,,, 
2006,02,13,044, 15.4,  9.4, 22.7,  0.0,,,,, 
2006,02,14,045, 15.9, 10.9, 22.8,  0.0,,,,, 
2006,02,15,046,  8.7,  2.1, 20.1,  0.0,,,,, 
2006,02,16,047,  4.2, -1.0,  9.9,  0.0,,,,, 
2006,02,17,048,  4.2,  0.9,  9.9,  0.5,,,,, 
2006,02,18,049,  4.8,  1.4,  8.7,  1.8,,,,, 
2006,02,19,050,  5.3,  2.4,  8.7,  1.0,,,,, 
2006,02,20,051,  4.7,  1.0,  9.7,  0.0,,,,, 
2006,02,21,052,  5.5,  1.2, 11.7,  0.0,,,,, 
2006,02,22,053,  6.3,  1.0, 15.1,  0.0,,,,, 
2006,02,23,054,  9.7,  3.7, 18.9,  0.0,,,,, 
2006,02,24,055, 11.5,  5.4, 19.2,  0.0,,,,, 
2006,02,25,056, 11.8,  5.5, 19.3,  0.0,,,,, 
2006,02,26,057, 11.6,  8.5, 17.9,  0.0,,,,, 
2006,02,27,058, 12.5, 10.5, 15.4,  1.7,,,,, 
2006,02,28,059, 10.1,  7.3, 14.2,  7.9,,,,, 
2006,03,01,060,  8.2,  3.9, 13.9,  0.0,,,,, 
2006,03,02,061,  8.0,  3.1, 14.0,  0.5,,,,, 
2006,03,03,062,  7.5,  4.3, 13.1, 12.2,,,,, 
2006,03,04,063,  5.6,  1.5, 12.1,  0.2,,,,, 
2006,03,05,064,  7.6,  3.1, 14.7,  0.0,,,,, 
2006,03,06,065,  9.3,  6.9, 13.7,  7.8,,,,, 
2006,03,07,066,  7.0,  3.8, 10.8,  1.2,,,,, 
2006,03,08,067,  6.3,  2.7, 11.6,  0.3,,,,, 
2006,03,09,068,  8.1,  5.4, 12.0,  0.0,,,,, 
2006,03,10,069,  5.2,  2.6, 11.4,  1.1,,,,, 
2006,03,11,070,  4.3,  2.2,  7.4,  2.6,,,,, 
2006,03,12,071,  3.5,  0.0,  8.4,  1.1,,,,, 
2006,03,13,072,  4.7,  0.8, 10.9,  0.3,,,,, 
2006,03,14,073,  6.0,  3.2, 11.0,  0.9,,,,, 
2006,03,15,074,  6.3,  1.9, 12.8,  0.2,,,,, 
2006,03,16,075,  7.6,  3.6, 13.5,  0.0,,,,, 
2006,03,17,076,  7.9,  6.7, 12.7,  7.0,,,,, 
2006,03,18,077,  6.2,  3.6, 11.3,  1.2,,,,, 
2006,03,19,078,  7.2,  3.1, 13.1,  1.7,,,,, 
2006,03,20,079,  6.4,  2.4, 13.1,  0.7,,,,, 
2006,03,21,080,  5.6,  3.4, 11.2,  2.2,,,,, 
2006,03,22,081,  8.6,  4.1, 15.9,  0.0,,,,, 
2006,03,23,082, 11.8,  6.3, 19.5,  0.0,,,,, 
2006,03,24,083, 12.7,  7.1, 20.2,  0.0,,,,, 
2006,03,25,084, 12.0,  9.0, 20.1,  2.6,,,,, 
2006,03,26,085,  8.2,  3.5, 16.1,  0.0,,,,, 
2006,03,27,086, 11.1,  7.8, 16.6,  0.0,,,,, 
2006,03,28,087,  9.4,  7.2, 12.6, 12.4,,,,, 
2006,03,29,088,  7.9,  5.0, 11.9,  3.2,,,,, 
2006,03,30,089,  8.1,  4.5, 13.5,  0.0,,,,, 
2006,03,31,090,  8.4,  6.4, 12.8,  0.4,,,,, 
2006,04,01,091,  8.1,  4.4, 14.1,  3.2,,,,, 
2006,04,02,092,  9.6,  6.2, 14.2,  0.0,,,,, 
2006,04,03,093, 10.6,  9.1, 12.2,  5.9,,,,, 
2006,04,04,094,  9.9,  8.1, 12.7, 10.4,,,,, 
2006,04,05,095,  7.3,  5.5, 11.0, 14.7,,,,, 
2006,04,06,096,  7.9,  3.4, 15.2,  0.1,,,,, 
2006,04,07,097, 10.2,  5.5, 15.4,  0.0,,,,, 
2006,04,08,098, 10.9,  6.5, 16.6,  0.6,,,,, 
2006,04,09,099, 10.2,  5.4, 16.5,  0.0,,,,, 
2006,04,10,100,  9.0,  6.0, 13.7,  0.1,,,,, 
2006,04,11,101,  8.7,  5.6, 12.9,  1.2,,,,, 
2006,04,12,102, 12.4,  8.2, 19.4,  0.0,,,,, 
2006,04,13,103, 14.7,  9.3, 21.9,  0.0,,,,, 
2006,04,14,104, 14.2, 11.3, 21.1,  0.0,,,,, 
2006,04,15,105, 11.3,  8.0, 16.6,  0.0,,,,, 
2006,04,16,106, 10.4,  5.8, 15.4,  0.0,,,,, 
2006,04,17,107,  8.5,  3.8, 13.4,  0.3,,,,, 
2006,04,18,108, 10.1,  5.0, 18.1,  0.0,,,,, 
2006,04,19,109, 14.0,  7.8, 22.6,  0.0,,,,, 
2006,04,20,110, 17.3, 11.2, 24.5,  0.0,,,,, 
2006,04,21,111, 14.0, 10.5, 22.4,  0.0,,,,, 
2006,04,22,112, 10.3,  5.7, 15.4,  0.6,,,,, 
2006,04,23,113, 10.3,  6.4, 15.0,  1.5,,,,, 
2006,04,24,114, 12.0,  8.2, 17.7,  0.2,,,,, 
2006,04,25,115, 13.8,  8.8, 19.5,  0.0,,,,, 
2006,04,26,116, 11.8,  8.5, 17.4,  6.5,,,,, 
2006,04,27,117, 14.1,  8.6, 22.6,  0.0,,,,, 
2006,04,28,118, 16.1,  9.6, 23.9,  0.0,,,,, 
2006,04,29,119, 18.5, 13.0, 27.1,  0.0,,,,, 
2006,04,30,120, 20.9, 15.6, 28.1,  0.0,,,,, 
2006,05,01,121, 22.2, 15.9, 28.9,  0.0,,,,, 
2006,05,02,122, 22.1, 16.3, 28.7,  0.0,,,,, 
2006,05,03,123, 17.5, 10.8, 25.2,  0.0,,,,, 
2006,05,04,124, 13.3,  6.4, 21.9,  0.0,,,,, 
2006,05,05,125, 15.6,  9.1, 24.2,  0.0,,,,, 
2006,05,06,126, 17.1, 11.8, 24.3,  0.0,,,,, 
2006,05,07,127, 17.7, 11.2, 26.2,  0.0,,,,, 
2006,05,08,128, 21.2, 14.8, 28.2,  0.0,,,,, 
2006,05,09,129, 21.0, 14.0, 28.0,  0.0,,,,, 
2006,05,10,130, 22.5, 15.8, 31.3,  0.0,,,,, 
2006,05,11,131, 25.2, 19.7, 32.0,  0.0,,,,, 
2006,05,12,132, 25.2, 19.4, 32.0,  0.0,,,,, 
2006,05,13,133, 23.0, 15.1, 31.5,  0.0,,,,, 
2006,05,14,134, 24.0, 16.3, 32.0,  0.0,,,,, 
2006,05,15,135, 25.1, 18.7, 32.2,  0.0,,,,, 
2006,05,16,136, 23.3, 15.5, 32.7,  0.0,,,,, 
2006,05,17,137, 26.7, 19.8, 34.4,  0.0,,,,, 
2006,05,18,138, 26.1, 18.0, 34.5,  0.0,,,,, 
2006,05,19,139, 22.5, 16.6, 31.6,  1.5,,,,, 
2006,05,20,140, 18.0, 11.9, 23.8,  0.0,,,,, 
2006,05,21,141, 16.4, 13.5, 23.8,  1.1,,,,, 
2006,05,22,142, 13.9, 11.0, 19.9, 14.0,,,,, 
2006,05,23,143, 15.8, 10.0, 22.8,  0.0,,,,, 
2006,05,24,144, 18.2, 12.1, 26.0,  0.0,,,,, 
2006,05,25,145, 19.3, 13.2, 26.3,  0.0,,,,, 
2006,05,26,146, 18.5, 12.0, 25.7,  0.0,,,,, 
2006,05,27,147, 14.5,  8.3, 23.6,  0.0,,,,, 
2006,05,28,148, 14.6,  8.1, 22.7,  0.0,,,,, 
2006,05,29,149, 17.7, 11.1, 24.6,  0.0,,,,, 
2006,05,30,150, 19.4, 12.4, 27.8,  0.0,,,,, 
2006,05,31,151, 22.0, 15.0, 30.8,  0.0,,,,, 
2006,06,01,152, 24.6, 17.0, 32.2,  0.0,,,,, 
2006,06,02,153, 24.7, 17.6, 32.3,  0.0,,,,, 
2006,06,03,154, 24.2, 17.4, 31.4,  0.0,,,,, 
2006,06,04,155, 25.9, 18.7, 33.0,  0.0,,,,, 
2006,06,05,156, 25.5, 18.7, 33.3,  0.0,,,,, 
2006,06,06,157, 25.3, 18.4, 32.3,  0.0,,,,, 
2006,06,07,158, 25.4, 18.4, 32.2,  0.0,,,,, 
2006,06,08,159, 24.9, 17.8, 32.4,  0.0,,,,, 
2006,06,09,160, 22.2, 16.1, 30.6,  0.0,,,,, 
2006,06,10,161, 20.2, 13.5, 28.0,  0.0,,,,, 
2006,06,11,162, 19.8, 13.0, 28.1,  0.0,,,,, 
2006,06,12,163, 18.2, 11.0, 25.6,  0.0,,,,, 
2006,06,13,164, 17.1, 10.9, 24.4,  0.0,,,,, 
2006,06,14,165, 19.1, 12.2, 27.4,  0.0,,,,, 
2006,06,15,166, 21.4, 15.2, 28.1,  0.0,,,,, 
2006,06,16,167, 24.6, 17.6, 33.8,  0.0,,,,, 
2006,06,17,168, 28.9, 21.4, 36.9,  0.0,,,,, 
2006,06,18,169, 29.9, 22.7, 37.0,  0.0,,,,, 
2006,06,19,170, 27.0, 19.2, 35.3,  0.0,,,,, 
2006,06,20,171, 25.1, 17.3, 32.2,  0.0,,,,, 
2006,06,21,172, 27.2, 20.2, 34.8,  0.0,,,,, 
2006,06,22,173, 29.0, 20.7, 36.9,  0.0,,,,, 
2006,06,23,174, 28.8, 19.7, 36.5,  0.0,,,,, 
2006,06,24,175, 30.0, 22.0, 38.9,  0.0,,,,, 
2006,06,25,176, 30.9, 23.6, 38.9,  0.0,,,,, 
2006,06,26,177, 32.4, 25.3, 39.1,  0.0,,,,, 
2006,06,27,178, 30.5, 24.3, 36.7,  0.0,,,,, 
2006,06,28,179, 27.9, 20.3, 35.8,  0.0,,,,, 
2006,06,29,180, 29.0, 21.1, 36.6,  0.0,,,,, 
2006,06,30,181, 29.6, 22.5, 36.6,  0.0,,,,, 
2006,07,01,182, 28.4, 20.9, 36.2,  0.0,,,,, 
2006,07,02,183, 28.9, 20.8, 35.9,  0.0,,,,, 
2006,07,03,184, 29.1, 22.3, 35.5,  0.0,,,,, 
2006,07,04,185, 28.0, 20.7, 34.8,  0.0,,,,, 
2006,07,05,186, 27.4, 20.2, 34.9,  0.0,,,,, 
2006,07,06,187, 25.6, 18.2, 34.1,  0.0,,,,, 
2006,07,07,188, 26.4, 18.1, 35.7,  0.0,,,,, 
2006,07,08,189, 30.4, 22.8, 38.6,  0.0,,,,, 
2006,07,09,190, 31.8, 24.3, 38.5,  0.0,,,,, 
2006,07,10,191, 29.3, 20.6, 37.2,  0.0,,,,, 
2006,07,11,192, 27.4, 19.9, 35.1,  0.0,,,,, 
2006,07,12,193, 25.2, 16.4, 34.4,  0.0,,,,, 
2006,07,13,194, 28.4, 21.3, 35.9,  0.0,,,,, 
2006,07,14,195, 29.0, 21.9, 37.1,  0.0,,,,, 
2006,07,15,196, 30.6, 22.9, 40.2,  0.0,,,,, 
2006,07,16,197, 33.1, 26.2, 40.3,  0.0,,,,, 
2006,07,17,198, 29.3, 23.6, 38.9,  0.0,,,,, 
2006,07,18,199, 28.3, 21.4, 35.9,  0.0,,,,, 
2006,07,19,200, 30.2, 22.8, 36.4,  0.0,,,,, 
2006,07,20,201, 30.5, 23.0, 37.9,  0.0,,,,, 
2006,07,21,202, 31.5, 23.3, 40.4,  0.0,,,,, 
2006,07,22,203, 34.7, 27.1, 43.7,  0.0,,,,, 
2006,07,23,204, 37.3, 30.9, 43.4,  1.7,,,,, 
2006,07,24,205, 35.8, 28.0, 43.5,  0.0,,,,, 
2006,07,25,206, 35.5, 29.4, 42.7,  0.0,,,,, 
2006,07,26,207, 31.0, 22.7, 40.9,  0.0,,,,, 
2006,07,27,208, 29.0, 21.3, 37.1,  0.0,,,,, 
2006,07,28,209, 27.3, 20.1, 35.7,  0.0,,,,, 
2006,07,29,210, 25.3, 18.9, 33.3,  0.0,,,,, 
2006,07,30,211, 23.1, 19.2, 31.3,  0.0,,,,, 
2006,07,31,212, 23.4, 16.8, 30.8,  0.0,,,,, 
2006,08,01,213, 22.7, 15.2, 30.7,  0.0,,,,, 
2006,08,02,214, 22.8, 15.2, 31.8,  0.0,,,,, 
2006,08,03,215, 24.9, 18.1, 32.9,  0.0,,,,, 
2006,08,04,216, 23.3, 15.8, 31.4,  0.0,,,,, 
2006,08,05,217, 21.1, 14.2, 30.4,  0.0,,,,, 
2006,08,06,218, 21.6, 14.1, 29.4,  0.0,,,,, 
2006,08,07,219, 21.1, 14.1, 29.3,  0.0,,,,, 
2006,08,08,220, 22.8, 15.5, 33.9,  0.0,,,,, 
2006,08,09,221, 28.1, 20.6, 36.8,  0.0,,,,, 
2006,08,10,222, 28.6, 20.4, 36.9,  0.0,,,,, 
2006,08,11,223, 27.7, 20.2, 35.0,  0.0,,,,, 
2006,08,12,224, 23.9, 15.6, 33.1,  0.0,,,,, 
2006,08,13,225, 22.8, 15.2, 31.9,  0.0,,,,, 
2006,08,14,226, 22.3, 13.8, 31.5,  0.0,,,,, 
2006,08,15,227, 22.7, 14.5, 31.7,  0.0,,,,, 
2006,08,16,228, 23.2, 16.2, 31.8,  0.0,,,,, 
2006,08,17,229, 22.6, 14.8, 30.5,  0.0,,,,, 
2006,08,18,230, 23.3, 15.3, 31.2,  0.0,,,,, 
2006,08,19,231, 23.4, 15.0, 31.9,  0.0,,,,, 
2006,08,20,232, 24.4, 16.4, 32.9,  0.0,,,,, 
2006,08,21,233, 24.7, 17.7, 34.6,  0.0,,,,, 
2006,08,22,234, 27.4, 20.4, 36.8,  0.0,,,,, 
2006,08,23,235, 28.1, 20.8, 36.3,  0.0,,,,, 
2006,08,24,236, 27.6, 19.9, 36.4,  0.0,,,,, 
2006,08,25,237, 24.1, 16.4, 34.1,  0.0,,,,, 
2006,08,26,238, 20.8, 13.5, 29.7,  0.0,,,,, 
2006,08,27,239, 23.8, 16.9, 33.1,  0.0,,,,, 
2006,08,28,240, 27.6, 21.4, 36.8,  0.0,,,,, 
2006,08,29,241, 28.9, 23.2, 36.8,  0.0,,,,, 
2006,08,30,242, 27.4, 20.7, 34.8,  0.0,,,,, 
2006,08,31,243, 26.6, 19.3, 35.5,  0.0,,,,, 
2006,09,01,244, 26.8, 19.1, 36.0,  0.0,,,,, 
2006,09,02,245, 28.2, 21.9, 36.8,  0.0,,,,, 
2006,09,03,246, 28.1, 21.6, 36.4,  0.0,,,,, 
2006,09,04,247, 28.0, 21.8, 36.6,  0.0,,,,, 
2006,09,05,248, 29.6, 23.4, 38.5,  0.0,,,,, 
2006,09,06,249, 30.7, 24.9, 38.5,  0.0,,,,, 
2006,09,07,250, 28.2, 20.6, 37.6,  0.0,,,,, 
2006,09,08,251, 22.3, 15.1, 31.7,  0.0,,,,, 
2006,09,09,252, 19.3, 12.2, 27.9,  0.0,,,,, 
2006,09,10,253, 20.4, 14.2, 29.1,  0.0,,,,, 
2006,09,11,254, 24.8, 18.6, 34.5,  0.0,,,,, 
2006,09,12,255, 28.7, 22.8, 37.2,  0.0,,,,, 
2006,09,13,256, 28.3, 20.5, 36.8,  0.0,,,,, 
2006,09,14,257, 25.1, 20.0, 34.6,  0.0,,,,, 
2006,09,15,258, 16.8,  9.7, 26.7,  0.0,,,,, 
2006,09,16,259, 16.4, 10.1, 24.2,  0.0,,,,, 
2006,09,17,260, 20.7, 14.0, 30.5,  0.0,,,,, 
2006,09,18,261, 25.2, 19.4, 33.2,  0.0,,,,, 
2006,09,19,262, 23.5, 16.7, 33.1,  0.0,,,,, 
2006,09,20,263, 19.9, 12.6, 28.2,  0.0,,,,, 
2006,09,21,264, 23.1, 18.2, 30.9,  0.0,,,,, 
2006,09,22,265, 21.6, 15.6, 29.9,  0.0,,,,, 
2006,09,23,266, 20.3, 14.3, 28.0,  0.0,,,,, 
2006,09,24,267, 21.4, 14.7, 29.8,  0.0,,,,, 
2006,09,25,268, 22.3, 16.8, 30.6,  0.0,,,,, 
2006,09,26,269, 22.0, 14.9, 30.6,  0.0,,,,, 
2006,09,27,270, 22.6, 16.7, 31.4,  0.0,,,,, 
2006,09,28,271, 23.2, 16.6, 31.2,  0.0,,,,, 
2006,09,29,272, 23.7, 17.2, 33.1,  0.0,,,,, 
2006,09,30,273, 21.8, 14.8, 32.1,  0.0,,,,, 
2006,10,01,274, 20.0, 16.3, 27.4,  0.1,,,,, 
2006,10,02,275, 17.5, 13.8, 23.0,  1.3,,,,, 
2006,10,03,276, 16.6, 11.2, 22.7,  0.0,,,,, 
2006,10,04,277, 15.6,  9.7, 23.5,  0.0,,,,, 
2006,10,05,278, 15.3, 11.1, 23.1,  0.3,,,,, 
2006,10,06,279, 14.1, 10.2, 20.8,  0.0,,,,, 
2006,10,07,280, 15.4, 10.4, 23.4,  0.0,,,,, 
2006,10,08,281, 18.8, 13.7, 27.1,  0.0,,,,, 
2006,10,09,282, 21.6, 17.4, 27.3,  0.0,,,,, 
2006,10,10,283, 16.5, 11.4, 26.0,  0.0,,,,, 
2006,10,11,284, 15.5, 10.6, 22.5,  0.0,,,,, 
2006,10,12,285, 17.0, 12.1, 22.8,  0.0,,,,, 
2006,10,13,286, 16.5, 13.1, 22.8,  0.3,,,,, 
2006,10,14,287, 15.7, 12.6, 20.9,  3.6,,,,, 
2006,10,15,288, 14.7, 10.0, 21.8,  0.0,,,,, 
2006,10,16,289, 15.5, 11.1, 21.9,  0.0,,,,, 
2006,10,17,290, 14.0,  8.8, 21.2,  0.0,,,,, 
2006,10,18,291, 15.6, 11.2, 22.2,  0.0,,,,, 
2006,10,19,292, 17.4, 12.1, 25.1,  0.0,,,,, 
2006,10,20,293, 19.6, 13.9, 28.3,  0.0,,,,, 
2006,10,21,294, 22.0, 15.8, 29.9,  0.0,,,,, 
2006,10,22,295, 22.6, 17.4, 29.2,  0.0,,,,, 
2006,10,23,296, 22.5, 17.6, 29.2,  0.0,,,,, 
2006,10,24,297, 18.9, 12.8, 27.1,  0.0,,,,, 
2006,10,25,298, 17.3, 11.1, 25.6,  0.0,,,,, 
2006,10,26,299, 17.8, 12.2, 24.9,  0.0,,,,, 
2006,10,27,300, 18.0, 12.2, 25.8,  0.0,,,,, 
2006,10,28,301, 20.0, 14.9, 27.5,  0.0,,,,, 
2006,10,29,302, 17.5, 11.5, 26.3,  0.0,,,,, 
2006,10,30,303, 14.9, 10.2, 22.0,  0.0,,,,, 
2006,10,31,304, 13.2,  7.3, 20.6,  0.0,,,,, 
2006,11,01,305, 14.3, 10.4, 21.1,  0.0,,,,, 
2006,11,02,306, 16.0, 12.7, 20.9,  0.0,,,,, 
2006,11,03,307, 16.7, 12.1, 22.0,  0.0,,,,, 
2006,11,04,308, 15.6, 10.8, 21.5,  0.0,,,,, 
2006,11,05,309, 16.5, 11.7, 23.2,  0.0,,,,, 
2006,11,06,310, 18.6, 13.9, 26.1,  0.0,,,,, 
2006,11,07,311, 20.1, 15.2, 26.6,  0.0,,,,, 
2006,11,08,312, 19.1, 13.7, 26.3,  0.0,,,,, 
2006,11,09,313, 14.4,  7.9, 23.1,  0.0,,,,, 
2006,11,10,314, 12.4,  7.0, 20.2,  0.0,,,,, 
2006,11,11,315, 12.4,  8.4, 20.1,  0.0,,,,, 
2006,11,12,316,  9.9,  5.3, 16.7,  0.0,,,,, 
2006,11,13,317, 13.4, 10.1, 19.5,  0.0,,,,, 
2006,11,14,318, 15.3, 13.2, 19.7,  0.0,,,,, 
2006,11,15,319, 14.4,  9.2, 21.8,  0.0,,,,, 
2006,11,16,320, 16.1, 10.7, 22.7,  0.0,,,,, 
2006,11,17,321, 16.1, 11.1, 22.1,  0.0,,,,, 
2006,11,18,322, 17.6, 13.1, 22.9,  0.0,,,,, 
2006,11,19,323, 17.2, 12.0, 24.4,  0.0,,,,, 
2006,11,20,324, 18.4, 13.5, 25.1,  0.0,,,,, 
2006,11,21,325, 17.0, 10.9, 24.7,  0.0,,,,, 
2006,11,22,326, 13.8,  9.9, 20.5,  0.0,,,,, 
2006,11,23,327, 13.3,  9.0, 16.8,  0.0,,,,, 
2006,11,24,328,  9.8,  4.1, 16.0,  0.0,,,,, 
2006,11,25,329,  8.8,  4.5, 14.1,  0.0,,,,, 
2006,11,26,330,  8.6,  4.2, 14.2,  0.0,,,,, 
2006,11,27,331,  8.6,  4.8, 12.8,  2.2,,,,, 
2006,11,28,332,  7.4,  2.5, 11.9,  0.4,,,,, 
2006,11,29,333,  4.6, -0.2,  9.7,  0.0,,,,, 
2006,11,30,334,  6.3,  1.3, 14.5,  0.0,,,,, 
2006,12,01,335,  8.1,  3.3, 15.9,  0.0,,,,, 
2006,12,02,336, 10.0,  4.5, 17.9,  0.0,,,,, 
2006,12,03,337, 10.9,  5.6, 18.0,  0.0,,,,, 
2006,12,04,338, 10.9,  4.9, 19.6,  0.0,,,,, 
2006,12,05,339, 12.4,  6.7, 20.6,  0.0,,,,, 
2006,12,06,340, 13.6,  8.1, 21.4,  0.0,,,,, 
2006,12,07,341, 14.8,  9.2, 23.7,  0.0,,,,, 
2006,12,08,342, 14.6,  9.4, 21.2,  0.0,,,,, 
2006,12,09,343, 12.1,  8.6, 15.9,  0.6,,,,, 
2006,12,10,344,  8.4,  5.5, 14.7,  7.8,,,,, 
2006,12,11,345,  8.2,  4.6, 13.5,  0.2,,,,, 
2006,12,12,346,  9.1,  6.2, 13.7,  0.0,,,,, 
2006,12,13,347, 11.1,  7.5, 16.5,  0.0,,,,, 
2006,12,14,348, 12.2,  8.7, 16.9,  0.0,,,,, 
2006,12,15,349, 12.0,  8.6, 17.0,  0.0,,,,, 
2006,12,16,350,  9.1,  5.7, 15.8,  0.3,,,,, 
2006,12,17,351,  5.3,  1.2,  9.5,  0.0,,,,, 
2006,12,18,352,  3.8, -0.9,  9.3,  0.0,,,,, 
2006,12,19,353,  3.5, -0.7, 10.1,  0.0,,,,, 
2006,12,20,354,  4.5, -0.2, 10.0,  0.0,,,,, 
2006,12,21,355,  4.8,  0.5, 11.6,  0.0,,,,, 
2006,12,22,356,  7.0,  3.1, 11.4,  0.9,,,,, 
2006,12,23,357,  5.3,  1.0, 12.7,  0.0,,,,, 
2006,12,24,358,  9.1,  5.2, 15.8,  0.0,,,,, 
2006,12,25,359, 11.0,  6.9, 19.1,  0.0,,,,, 
2006,12,26,360, 13.4, 10.1, 18.9,  0.0,,,,, 
2006,12,27,361,  9.5,  6.2, 15.2,  3.7,,,,, 
2006,12,28,362,  4.8,  0.4,  8.2,  0.0,,,,, 
2006,12,29,363,  4.7,  0.3, 12.2,  0.0,,,,, 
2006,12,30,364,  6.6,  1.6, 14.1,  0.0,,,,, 
2006,12,31,365,  7.8,  3.4, 13.3,  0.0,,,,, 
2007,01,01,001,  6.2,  2.4, 12.7,  0.0,,,,, 
2007,01,02,002,  7.3,  3.0, 15.5,  0.0,,,,, 
2007,01,03,003, 10.6,  6.7, 16.7,  0.0,,,,, 
2007,01,04,004, 10.4,  6.5, 16.6,  0.5,,,,, 
2007,01,05,005,  5.2,  0.9, 11.0,  0.1,,,,, 
2007,01,06,006,  4.0, -0.2, 10.3,  0.0,,,,, 
2007,01,07,007,  6.2,  2.3, 12.5,  0.0,,,,, 
2007,01,08,008,  9.1,  4.5, 17.9,  0.0,,,,, 
2007,01,09,009, 12.6,  7.9, 21.1,  0.0,,,,, 
2007,01,10,010, 13.2,  8.3, 20.3,  0.0,,,,, 
2007,01,11,011,  6.8,  1.0, 16.2,  0.0,,,,, 
2007,01,12,012,  2.6, -2.2,  8.3,  0.0,,,,, 
2007,01,13,013, -0.4, -4.8,  4.7,  0.0,,,,, 
2007,01,14,014,  0.3, -3.7,  6.7,  0.0,,,,, 
2007,01,15,015,  1.5, -3.2,  9.1,  0.0,,,,, 
2007,01,16,016,  3.4, -1.7, 10.9,  0.0,,,,, 
2007,01,17,017,  3.2, -1.3, 10.7,  0.2,,,,, 
2007,01,18,018,  3.2, -1.8, 11.2,  0.0,,,,, 
2007,01,19,019,  5.5,  0.3, 14.4,  0.0,,,,, 
2007,01,20,020,  7.4,  1.4, 14.4,  0.0,,,,, 
2007,01,21,021,  7.3,  1.8, 13.8,  0.0,,,,, 
2007,01,22,022,  6.6,  0.8, 15.1,  0.0,,,,, 
2007,01,23,023,  9.0,  3.4, 17.1,  0.0,,,,, 
2007,01,24,024, 10.6,  4.9, 18.9,  0.0,,,,, 
2007,01,25,025, 11.9,  6.1, 19.0,  0.0,,,,, 
2007,01,26,026, 10.5,  5.0, 18.3,  0.0,,,,, 
2007,01,27,027,  8.1,  5.7, 14.2,  1.6,,,,, 
2007,01,28,028,  7.1,  5.9,  9.8,  3.2,,,,, 
2007,01,29,029,  8.4,  6.1, 13.3,  4.2,,,,, 
2007,01,30,030, 10.2,  6.9, 14.4,  0.0,,,,, 
2007,01,31,031,  9.4,  4.5, 14.3,  0.0,,,,, 
2007,02,01,032,  6.9,  1.9, 13.1,  0.0,,,,, 
2007,02,02,033,  8.2,  2.8, 14.3,  0.0,,,,, 
2007,02,03,034,  9.8,  5.2, 17.3,  0.0,,,,, 
2007,02,04,035, 12.5,  7.3, 21.4,  0.0,,,,, 
2007,02,05,036, 15.7, 10.9, 23.6,  0.0,,,,, 
2007,02,06,037, 15.6, 10.8, 23.6,  0.0,,,,, 
2007,02,07,038, 12.0,  8.7, 19.4,  0.0,,,,, 
2007,02,08,039, 11.5,  9.1, 17.2,  0.2,,,,, 
2007,02,09,040, 12.7,  9.9, 16.6,  0.0,,,,, 
2007,02,10,041, 13.2, 11.1, 16.5,  0.3,,,,, 
2007,02,11,042, 10.5,  7.0, 14.0, 10.6,,,,, 
2007,02,12,043,  8.7,  4.1, 14.3,  0.0,,,,, 
2007,02,13,044,  7.2,  3.8, 12.8,  0.0,,,,, 
2007,02,14,045,  7.6,  3.7, 13.4,  0.1,,,,, 
2007,02,15,046,  9.2,  4.4, 16.2,  0.0,,,,, 
2007,02,16,047, 12.5,  8.3, 19.1,  0.0,,,,, 
2007,02,17,048, 14.3,  9.6, 21.6,  0.0,,,,, 
2007,02,18,049, 15.1, 10.9, 21.8,  0.0,,,,, 
2007,02,19,050, 10.1,  6.3, 16.1,  8.1,,,,, 
2007,02,20,051,  9.0,  4.0, 15.1,  0.0,,,,, 
2007,02,21,052,  9.4,  4.5, 16.0,  0.0,,,,, 
2007,02,22,053,  8.3,  6.3, 16.0,  3.1,,,,, 
2007,02,23,054,  5.8,  2.8,  9.1,  2.2,,,,, 
2007,02,24,055,  5.6,  1.1, 12.7,  0.0,,,,, 
2007,02,25,056,  8.2,  5.3, 13.0,  0.0,,,,, 
2007,02,26,057,  7.5,  3.2, 12.3,  0.0,,,,, 
2007,02,27,058,  6.5,  3.5, 11.1,  4.6,,,,, 
2007,02,28,059,  4.6,  2.0,  8.4,  0.2,,,,, 
2007,03,01,060,  5.5,  1.7, 10.1,  0.0,,,,, 
2007,03,02,061,  6.4,  2.3, 12.2,  0.0,,,,, 
2007,03,03,062,  9.0,  3.9, 18.8,  0.0,,,,, 
2007,03,04,063, 12.9,  7.8, 20.6,  0.0,,,,, 
2007,03,05,064, 15.6, 11.6, 22.3,  0.0,,,,, 
2007,03,06,065, 15.3, 10.4, 22.7,  0.0,,,,, 
2007,03,07,066, 14.7, 11.6, 21.7,  0.0,,,,, 
2007,03,08,067, 11.8,  6.4, 19.3,  0.0,,,,, 
2007,03,09,068, 12.2,  6.9, 19.5,  0.0,,,,, 
2007,03,10,069, 13.1,  8.0, 20.6,  0.0,,,,, 
2007,03,11,070, 16.2, 10.6, 25.9,  0.0,,,,, 
2007,03,12,071, 19.6, 13.3, 28.3,  0.0,,,,, 
2007,03,13,072, 21.2, 15.3, 29.4,  0.0,,,,, 
2007,03,14,073, 19.5, 13.4, 28.8,  0.0,,,,, 
2007,03,15,074, 17.9, 12.0, 26.6,  0.0,,,,, 
2007,03,16,075, 19.3, 13.2, 28.5,  0.0,,,,, 
2007,03,17,076, 19.9, 14.2, 28.7,  0.0,,,,, 
2007,03,18,077, 16.5, 10.3, 26.1,  0.0,,,,, 
2007,03,19,078, 15.3,  9.9, 23.1,  0.0,,,,, 
2007,03,20,079, 13.8, 11.1, 20.4,  2.0,,,,, 
2007,03,21,080,  9.7,  5.5, 16.5,  1.6,,,,, 
2007,03,22,081, 12.7,  7.6, 21.3,  0.0,,,,, 
2007,03,23,082, 15.7, 10.5, 23.7,  0.0,,,,, 
2007,03,24,083, 15.5, 10.4, 23.8,  0.0,,,,, 
2007,03,25,084, 14.9,  8.9, 22.1,  0.0,,,,, 
2007,03,26,085, 14.5,  9.9, 22.2,  0.0,,,,, 
2007,03,27,086,  9.6,  4.5, 18.6,  0.5,,,,, 
2007,03,28,087,  7.8,  2.3, 15.8,  0.0,,,,, 
2007,03,29,088, 11.5,  5.5, 21.2,  0.0,,,,, 
2007,03,30,089, 15.2,  8.5, 23.6,  0.0,,,,, 
2007,03,31,090, 17.0, 11.1, 24.7,  0.0,,,,, 
2007,04,01,091, 17.7, 11.5, 25.2,  0.0,,,,, 
2007,04,02,092, 17.8, 11.6, 25.4,  0.0,,,,, 
2007,04,03,093, 18.8, 13.0, 26.7,  0.0,,,,, 
2007,04,04,094, 20.0, 14.3, 27.5,  0.0,,,,, 
2007,04,05,095, 21.1, 15.6, 28.0,  0.0,,,,, 
2007,04,06,096, 19.4, 13.1, 28.0,  0.0,,,,, 
2007,04,07,097, 16.8, 11.4, 25.4,  0.0,,,,, 
2007,04,08,098, 16.0,  9.3, 23.5,  0.0,,,,, 
2007,04,09,099, 15.4, 10.2, 22.9,  0.0,,,,, 
2007,04,10,100, 14.4,  7.5, 22.0,  0.0,,,,, 
2007,04,11,101, 13.6,  8.3, 22.2,  0.2,,,,, 
2007,04,12,102,  9.7,  4.7, 15.9,  0.0,,,,, 
2007,04,13,103, 11.8,  5.1, 21.9,  0.0,,,,, 
2007,04,14,104, 13.5,  9.4, 22.0,  0.2,,,,, 
2007,04,15,105,  8.8,  4.8, 15.5,  0.5,,,,, 
2007,04,16,106, 12.6,  6.8, 23.1,  0.0,,,,, 
2007,04,17,107, 16.4, 11.1, 23.8,  0.0,,,,, 
2007,04,18,108,  9.8,  2.9, 22.3,  0.0,,,,, 
2007,04,19,109,  9.2,  3.2, 16.9,  0.0,,,,, 
2007,04,20,110,  8.2,  5.6, 13.7,  3.5,,,,, 
2007,04,21,111,  9.4,  4.4, 18.2,  0.0,,,,, 
2007,04,22,112, 11.6,  7.9, 18.2,  0.4,,,,, 
2007,04,23,113, 11.7,  5.7, 20.4,  0.0,,,,, 
2007,04,24,114, 15.5,  9.3, 24.5,  0.0,,,,, 
2007,04,25,115, 18.5, 12.4, 25.4,  0.0,,,,, 
2007,04,26,116, 17.0,  9.7, 26.1,  0.0,,,,, 
2007,04,27,117, 22.0, 15.2, 31.8,  0.0,,,,, 
2007,04,28,118, 26.1, 19.8, 33.7,  0.0,,,,, 
2007,04,29,119, 24.9, 18.3, 33.0,  0.0,,,,, 
2007,04,30,120, 21.1, 13.2, 29.7,  0.0,,,,, 
2007,05,01,121, 20.7, 15.3, 28.8,  0.0,,,,, 
2007,05,02,122, 17.1, 11.1, 25.2,  0.0,,,,, 
2007,05,03,123, 12.7,  7.2, 19.5,  0.0,,,,, 
2007,05,04,124, 13.5,  9.2, 20.0,  0.0,,,,, 
2007,05,05,125, 13.5,  7.1, 20.1,  0.0,,,,, 
2007,05,06,126, 16.0,  8.9, 25.5,  0.2,,,,, 
2007,05,07,127, 21.5, 14.2, 30.3,  0.0,,,,, 
2007,05,08,128, 24.4, 17.6, 32.5,  0.0,,,,, 
2007,05,09,129, 24.6, 17.7, 32.0,  0.0,,,,, 
2007,05,10,130, 21.6, 14.1, 30.5,  0.0,,,,, 
2007,05,11,131, 20.5, 12.7, 28.7,  0.0,,,,, 
2007,05,12,132, 18.2, 11.1, 27.4,  0.0,,,,, 
2007,05,13,133, 18.0, 10.4, 27.0,  0.0,,,,, 
2007,05,14,134, 21.0, 13.6, 30.0,  0.0,,,,, 
2007,05,15,135, 21.5, 13.8, 30.3,  0.0,,,,, 
2007,05,16,136, 21.4, 14.4, 30.3,  0.0,,,,, 
2007,05,17,137, 21.8, 13.9, 30.6,  0.0,,,,, 
2007,05,18,138, 22.0, 14.6, 29.8,  0.0,,,,, 
2007,05,19,139, 21.7, 14.3, 29.6,  0.0,,,,, 
2007,05,20,140, 22.1, 14.8, 29.6,  0.0,,,,, 
2007,05,21,141, 20.6, 13.7, 29.1,  0.0,,,,, 
2007,05,22,142, 21.2, 13.6, 28.1,  0.0,,,,, 
2007,05,23,143, 20.7, 13.0, 28.2,  0.0,,,,, 
2007,05,24,144, 22.5, 15.9, 30.9,  0.0,,,,, 
2007,05,25,145, 22.9, 16.3, 31.0,  0.0,,,,, 
2007,05,26,146, 23.0, 16.8, 30.5,  0.0,,,,, 
2007,05,27,147, 20.0, 13.3, 28.1,  0.0,,,,, 
2007,05,28,148, 18.5, 11.4, 26.9,  0.0,,,,, 
2007,05,29,149, 19.4, 11.0, 28.5,  0.0,,,,, 
2007,05,30,150, 20.3, 12.1, 28.7,  0.0,,,,, 
2007,05,31,151, 20.1, 11.9, 29.5,  0.0,,,,, 
2007,06,01,152, 21.9, 13.6, 30.1,  0.0,,,,, 
2007,06,02,153, 21.6, 13.7, 30.9,  0.0,,,,, 
2007,06,03,154, 23.5, 16.1, 31.9,  0.0,,,,, 